Terug naar catalogus

ARIANE 44L+3 R/B

ActiefHEO
NORAD 23866·ROCKET BODY·🇫🇷 France

Gelanceerd May 16, 1996 vanaf Guiana Space Centre

Loading…

Volgende Passages (komende 24 uur)

TLE

VersSource: Space-Track

Epoch: Sep 14, 2026, 07:11 UTC

1 23866U 96030C   26257.29958877  .00002007  00000-0  74367-3 0  9999
2 23866   4.0659 186.1995 6700578 245.2579  33.6535  3.02368172285357

Volg ARIANE 44L+3 R/B in realtime met AllMySat

Download on the App Store